Time,TemperatureF,DewpointF,PressureIn,WindDirection,WindDirectionDegrees,WindSpeedMPH,WindSpeedGustMPH,Humidity,HourlyPrecipIn,Conditions,Clouds,dailyrainin,SoftwareType,DateUTC
2013-11-16 00:02:00,32.0,32.0,24.99,NNE,22,9.6,21.0,98,0.00,,,0.00,Rainwise IP-100,2013-11-16 08:02:00,
2013-11-16 00:07:00,31.8,31.0,24.98,NNE,22,1.6,16.0,97,0.00,,,0.00,Rainwise IP-100,2013-11-16 08:07:00,
2013-11-16 00:12:00,31.6,31.0,24.97,NNW,337,6.3,17.0,97,0.00,,,0.00,Rainwise IP-100,2013-11-16 08:12:00,
2013-11-16 00:17:00,31.4,29.0,24.97,NNW,337,6.8,13.0,96,0.00,,,0.00,Rainwise IP-100,2013-11-16 08:17:00,
2013-11-16 00:22:00,31.3,29.0,24.97,SW,225,1.6,16.0,95,0.00,,,0.00,Rainwise IP-100,2013-11-16 08:22:00,
2013-11-16 00:27:00,31.1,29.0,24.96,WNW,292,4.7,16.0,95,0.00,,,0.00,Rainwise IP-100,2013-11-16 08:27:00,
2013-11-16 00:32:00,30.9,29.0,24.97,ENE,67,0.0,18.0,96,0.00,,,0.00,Rainwise IP-100,2013-11-16 08:32:00,
2013-11-16 00:37:00,30.8,29.0,24.97,ENE,67,1.4,26.0,97,0.00,,,0.00,Rainwise IP-100,2013-11-16 08:37:00,
2013-11-16 00:42:00,30.5,31.0,24.96,ENE,67,0.0,18.0,98,0.00,,,0.00,Rainwise IP-100,2013-11-16 08:42:00,
2013-11-16 00:47:00,30.4,31.0,24.95,East,90,0.0,20.0,98,0.00,,,0.00,Rainwise IP-100,2013-11-16 08:47:00,
2013-11-16 00:52:00,30.3,29.0,24.97,ENE,67,0.0,18.0,97,0.00,,,0.00,Rainwise IP-100,2013-11-16 08:52:00,
2013-11-16 00:57:00,30.2,29.0,24.96,ENE,67,0.0,18.0,96,0.00,,,0.00,Rainwise IP-100,2013-11-16 08:57:00,
2013-11-16 01:02:00,30.1,29.0,24.97,WNW,292,10.5,14.0,95,0.00,,,0.00,Rainwise IP-100,2013-11-16 09:02:00,
2013-11-16 01:07:00,30.1,29.0,24.95,North,360,7.7,21.0,94,0.00,,,0.00,Rainwise IP-100,2013-11-16 09:07:00,
2013-11-16 01:12:00,30.1,29.0,24.97,ENE,67,1.2,17.0,93,0.00,,,0.00,Rainwise IP-100,2013-11-16 09:12:00,
2013-11-16 01:19:00,30.0,29.0,24.97,North,360,3.7,21.0,92,0.00,,,0.00,Rainwise IP-100,2013-11-16 09:19:00,
2013-11-16 01:24:00,29.6,28.0,24.97,NNE,22,7.5,15.0,91,0.00,,,0.00,Rainwise IP-100,2013-11-16 09:24:00,
2013-11-16 01:29:00,29.3,26.0,24.97,NNW,337,15.2,27.0,89,0.00,,,0.00,Rainwise IP-100,2013-11-16 09:29:00,
2013-11-16 01:34:00,28.9,26.0,24.97,NNW,337,7.5,23.0,90,0.00,,,0.00,Rainwise IP-100,2013-11-16 09:34:00,
2013-11-16 01:39:00,28.5,28.0,24.97,NNE,22,7.7,15.0,91,0.00,,,0.00,Rainwise IP-100,2013-11-16 09:39:00,
2013-11-16 01:44:00,28.5,28.0,24.96,North,360,10.5,14.0,91,0.00,,,0.00,Rainwise IP-100,2013-11-16 09:44:00,
2013-11-16 01:49:00,28.6,28.0,24.98,ENE,67,3.0,21.0,91,0.00,,,0.00,Rainwise IP-100,2013-11-16 09:49:00,
2013-11-16 01:54:00,28.7,28.0,24.97,ENE,67,5.6,18.0,92,0.00,,,0.00,Rainwise IP-100,2013-11-16 09:54:00,
2013-11-16 01:59:00,28.8,28.0,24.98,NNE,22,7.9,18.0,92,0.00,,,0.00,Rainwise IP-100,2013-11-16 09:59:00,
2013-11-16 02:04:00,28.9,28.0,24.97,NNW,337,8.4,21.0,92,0.00,,,0.00,Rainwise IP-100,2013-11-16 10:04:00,
2013-11-16 02:09:00,29.0,28.0,24.98,NNW,337,18.0,18.0,91,0.00,,,0.00,Rainwise IP-100,2013-11-16 10:09:00,
2013-11-16 02:14:00,29.0,28.0,24.97,NW,315,7.0,18.0,91,0.00,,,0.00,Rainwise IP-100,2013-11-16 10:14:00,
2013-11-16 02:19:00,29.0,28.0,24.97,North,360,13.5,21.0,91,0.00,,,0.00,Rainwise IP-100,2013-11-16 10:19:00,
2013-11-16 02:24:00,28.9,28.0,24.96,NW,315,6.3,24.0,91,0.00,,,0.00,Rainwise IP-100,2013-11-16 10:24:00,
2013-11-16 02:29:00,28.9,26.0,24.97,NNE,22,10.3,25.0,90,0.00,,,0.00,Rainwise IP-100,2013-11-16 10:29:00,
2013-11-16 02:34:00,29.0,26.0,24.96,NW,315,4.2,18.0,90,0.00,,,0.00,Rainwise IP-100,2013-11-16 10:34:00,
2013-11-16 02:39:00,29.1,26.0,24.97,ENE,67,1.4,19.0,90,0.00,,,0.00,Rainwise IP-100,2013-11-16 10:39:00,
2013-11-16 02:44:00,29.1,26.0,24.97,North,360,2.1,19.0,90,0.00,,,0.00,Rainwise IP-100,2013-11-16 10:44:00,
2013-11-16 02:49:00,29.2,26.0,24.97,NNW,337,4.9,12.0,89,0.00,,,0.00,Rainwise IP-100,2013-11-16 10:49:00,
2013-11-16 02:54:00,29.2,26.0,24.97,NE,45,0.0,15.0,88,0.00,,,0.00,Rainwise IP-100,2013-11-16 10:54:00,
2013-11-16 02:59:00,29.1,26.0,24.98,NNW,337,6.8,11.0,86,0.00,,,0.00,Rainwise IP-100,2013-11-16 10:59:00,
2013-11-16 03:04:00,29.0,26.0,24.98,ENE,67,0.0,15.0,85,0.00,,,0.00,Rainwise IP-100,2013-11-16 11:04:00,
2013-11-16 03:09:00,28.8,24.0,24.99,NNW,337,5.8,19.0,84,0.00,,,0.00,Rainwise IP-100,2013-11-16 11:09:00,
2013-11-16 03:14:00,28.6,24.0,24.99,NNE,22,7.0,13.0,84,0.00,,,0.00,Rainwise IP-100,2013-11-16 11:14:00,
2013-11-16 03:19:00,28.4,24.0,25.00,ENE,67,5.1,18.0,85,0.00,,,0.00,Rainwise IP-100,2013-11-16 11:19:00,
2013-11-16 03:24:00,28.0,24.0,25.00,NNW,337,22.4,22.4,87,0.00,,,0.00,Rainwise IP-100,2013-11-16 11:24:00,
2013-11-16 03:29:00,27.7,24.0,25.00,NNW,337,4.7,26.0,89,0.00,,,0.00,Rainwise IP-100,2013-11-16 11:29:00,
2013-11-16 03:34:00,27.4,26.0,24.99,ENE,67,0.0,11.0,90,0.00,,,0.00,Rainwise IP-100,2013-11-16 11:34:00,
2013-11-16 03:39:00,27.6,24.0,24.99,South,180,2.6,14.0,89,0.00,,,0.00,Rainwise IP-100,2013-11-16 11:39:00,
2013-11-16 03:44:00,27.7,24.0,25.00,East,90,1.9,22.0,88,0.00,,,0.00,Rainwise IP-100,2013-11-16 11:44:00,
2013-11-16 03:49:00,27.8,24.0,25.00,NNW,337,3.7,19.0,88,0.00,,,0.00,Rainwise IP-100,2013-11-16 11:49:00,
2013-11-16 03:54:00,27.8,24.0,24.99,East,90,0.0,10.0,89,0.00,,,0.00,Rainwise IP-100,2013-11-16 11:54:00,
2013-11-16 03:59:00,27.8,24.0,25.00,SSW,202,0.0,16.0,89,0.00,,,0.00,Rainwise IP-100,2013-11-16 11:59:00,
2013-11-16 04:04:00,27.7,26.0,25.00,ENE,67,0.0,9.0,91,0.00,,,0.00,Rainwise IP-100,2013-11-16 12:04:00,
2013-11-16 04:09:00,27.5,26.0,25.01,NNE,22,2.8,14.0,92,0.00,,,0.00,Rainwise IP-100,2013-11-16 12:09:00,
2013-11-16 04:14:00,27.5,26.0,25.01,ENE,67,0.0,12.0,92,0.00,,,0.00,Rainwise IP-100,2013-11-16 12:14:00,
2013-11-16 04:19:00,27.6,26.0,25.01,ENE,67,0.0,5.0,92,0.00,,,0.00,Rainwise IP-100,2013-11-16 12:19:00,
2013-11-16 04:24:00,27.7,26.0,25.01,ENE,67,0.0,3.0,91,0.00,,,0.00,Rainwise IP-100,2013-11-16 12:24:00,
2013-11-16 04:29:00,27.8,26.0,25.01,NNW,337,7.0,10.0,90,0.00,,,0.00,Rainwise IP-100,2013-11-16 12:29:00,
2013-11-16 04:34:00,27.7,26.0,25.01,NNW,337,5.4,11.0,91,0.00,,,0.00,Rainwise IP-100,2013-11-16 12:34:00,
2013-11-16 04:39:00,27.7,26.0,25.02,NNE,22,4.2,9.0,92,0.00,,,0.00,Rainwise IP-100,2013-11-16 12:39:00,
2013-11-16 04:44:00,27.6,26.0,25.02,NNW,337,7.7,14.0,92,0.00,,,0.00,Rainwise IP-100,2013-11-16 12:44:00,
2013-11-16 04:49:00,27.6,26.0,25.02,NE,45,4.0,14.0,92,0.00,,,0.00,Rainwise IP-100,2013-11-16 12:49:00,
2013-11-16 04:54:00,27.8,26.0,25.02,ENE,67,0.0,9.0,91,0.00,,,0.00,Rainwise IP-100,2013-11-16 12:54:00,
2013-11-16 04:59:00,27.8,26.0,25.03,ENE,67,0.0,10.0,91,0.00,,,0.00,Rainwise IP-100,2013-11-16 12:59:00,
2013-11-16 05:04:00,27.7,26.0,25.03,NNW,337,5.1,9.0,92,0.00,,,0.00,Rainwise IP-100,2013-11-16 13:04:00,
2013-11-16 05:09:00,27.5,26.0,25.04,NE,45,0.0,12.0,94,0.00,,,0.00,Rainwise IP-100,2013-11-16 13:09:00,
2013-11-16 05:14:00,27.4,26.0,25.04,ENE,67,0.0,9.0,94,0.00,,,0.00,Rainwise IP-100,2013-11-16 13:14:00,
2013-11-16 05:19:00,27.4,26.0,25.04,ENE,67,2.6,8.0,95,0.00,,,0.00,Rainwise IP-100,2013-11-16 13:19:00,
2013-11-16 05:24:00,27.3,26.0,25.04,NNW,337,4.9,8.0,95,0.00,,,0.00,Rainwise IP-100,2013-11-16 13:24:00,
2013-11-16 05:29:00,27.2,26.0,25.04,North,360,4.9,9.0,95,0.00,,,0.00,Rainwise IP-100,2013-11-16 13:29:00,
2013-11-16 05:34:00,27.2,26.0,25.04,ENE,67,0.0,11.0,95,0.00,,,0.00,Rainwise IP-100,2013-11-16 13:34:00,
2013-11-16 05:39:00,27.2,26.0,25.05,NNE,22,3.5,10.0,95,0.00,,,0.00,Rainwise IP-100,2013-11-16 13:39:00,
2013-11-16 05:44:00,27.3,26.0,25.05,East,90,0.0,10.0,95,0.00,,,0.00,Rainwise IP-100,2013-11-16 13:44:00,
2013-11-16 05:49:00,27.3,26.0,25.05,ENE,67,0.0,13.0,95,0.00,,,0.00,Rainwise IP-100,2013-11-16 13:49:00,
2013-11-16 05:54:00,27.2,26.0,25.05,NNE,22,5.4,10.0,95,0.00,,,0.00,Rainwise IP-100,2013-11-16 13:54:00,
2013-11-16 05:59:00,27.2,26.0,25.06,North,360,6.1,8.0,95,0.00,,,0.00,Rainwise IP-100,2013-11-16 13:59:00,
2013-11-16 06:04:00,27.2,26.0,25.06,North,360,4.2,9.0,95,0.00,,,0.00,Rainwise IP-100,2013-11-16 14:04:00,
2013-11-16 06:09:00,27.1,26.0,25.06,NNW,337,5.8,9.0,96,0.00,,,0.00,Rainwise IP-100,2013-11-16 14:09:00,
2013-11-16 06:14:00,27.0,28.0,25.06,NNE,22,4.7,9.0,97,0.00,,,0.00,Rainwise IP-100,2013-11-16 14:14:00,
2013-11-16 06:19:00,26.9,28.0,25.06,NNW,337,7.2,9.0,97,0.00,,,0.00,Rainwise IP-100,2013-11-16 14:19:00,
2013-11-16 06:24:00,26.8,28.0,25.06,NNW,337,3.5,11.0,97,0.00,,,0.00,Rainwise IP-100,2013-11-16 14:24:00,
2013-11-16 06:29:00,26.7,28.0,25.07,NNE,22,3.5,10.0,98,0.00,,,0.00,Rainwise IP-100,2013-11-16 14:29:00,
2013-11-16 06:34:00,26.7,28.0,25.07,NNW,337,6.1,11.0,98,0.00,,,0.00,Rainwise IP-100,2013-11-16 14:34:00,
2013-11-16 06:39:00,26.7,28.0,25.08,NNW,337,10.7,10.7,99,0.00,,,0.00,Rainwise IP-100,2013-11-16 14:39:00,
2013-11-16 06:44:00,26.6,28.0,25.08,NNE,22,2.6,13.0,99,0.00,,,0.00,Rainwise IP-100,2013-11-16 14:44:00,
2013-11-16 06:49:00,26.6,28.0,25.08,NNW,337,4.0,9.0,99,0.00,,,0.00,Rainwise IP-100,2013-11-16 14:49:00,
2013-11-16 06:54:00,26.6,28.0,25.08,ENE,67,0.0,10.0,99,0.00,,,0.00,Rainwise IP-100,2013-11-16 14:54:00,
2013-11-16 06:59:00,26.6,28.0,25.08,NNE,22,6.5,14.0,99,0.00,,,0.00,Rainwise IP-100,2013-11-16 14:59:00,
2013-11-16 07:04:00,26.6,28.0,25.09,NNW,337,6.1,11.0,99,0.00,,,0.00,Rainwise IP-100,2013-11-16 15:04:00,
2013-11-16 07:09:00,26.5,28.0,25.08,ENE,67,0.0,8.0,99,0.00,,,0.00,Rainwise IP-100,2013-11-16 15:09:00,
2013-11-16 07:14:00,26.5,28.0,25.09,North,360,5.4,9.0,100,0.00,,,0.00,Rainwise IP-100,2013-11-16 15:14:00,
2013-11-16 07:19:00,26.6,28.0,25.08,NNW,337,1.4,9.0,99,0.00,,,0.00,Rainwise IP-100,2013-11-16 15:19:00,
2013-11-16 07:24:00,26.7,28.0,25.09,NNE,22,4.2,11.0,99,0.00,,,0.00,Rainwise IP-100,2013-11-16 15:24:00,
2013-11-16 07:29:00,26.8,28.0,25.09,NNW,337,5.1,7.0,99,0.00,,,0.00,Rainwise IP-100,2013-11-16 15:29:00,
2013-11-16 07:34:00,26.7,28.0,25.09,NNW,337,2.1,8.0,99,0.00,,,0.00,Rainwise IP-100,2013-11-16 15:34:00,
2013-11-16 07:39:00,26.7,28.0,25.09,ENE,67,0.0,8.0,99,0.00,,,0.00,Rainwise IP-100,2013-11-16 15:39:00,
2013-11-16 07:44:00,26.8,28.0,25.10,NNW,337,5.8,7.0,98,0.00,,,0.00,Rainwise IP-100,2013-11-16 15:44:00,
2013-11-16 07:49:00,26.9,28.0,25.10,NNW,337,4.9,8.0,98,0.00,,,0.00,Rainwise IP-100,2013-11-16 15:49:00,
2013-11-16 07:54:00,27.0,28.0,25.11,East,90,1.6,5.0,98,0.00,,,0.00,Rainwise IP-100,2013-11-16 15:54:00,
2013-11-16 07:59:00,27.0,28.0,25.11,East,90,1.2,3.0,97,0.00,,,0.00,Rainwise IP-100,2013-11-16 15:59:00,
2013-11-16 08:04:00,27.0,28.0,25.11,NNE,22,0.0,12.0,97,0.00,,,0.00,Rainwise IP-100,2013-11-16 16:04:00,
2013-11-16 08:09:00,27.1,26.0,25.11,WNW,292,2.6,7.0,96,0.00,,,0.00,Rainwise IP-100,2013-11-16 16:09:00,
2013-11-16 08:14:00,27.2,26.0,25.11,NW,315,5.6,8.0,96,0.00,,,0.00,Rainwise IP-100,2013-11-16 16:14:00,
2013-11-16 08:19:00,27.1,28.0,25.12,NNW,337,4.7,6.0,97,0.00,,,0.00,Rainwise IP-100,2013-11-16 16:19:00,
2013-11-16 08:24:00,27.0,28.0,25.12,NNW,337,4.4,7.0,98,0.00,,,0.00,Rainwise IP-100,2013-11-16 16:24:00,
2013-11-16 08:29:00,27.0,28.0,25.12,NNW,337,0.0,5.0,98,0.00,,,0.00,Rainwise IP-100,2013-11-16 16:29:00,
2013-11-16 08:34:00,27.1,28.0,25.13,NNE,22,0.0,3.0,98,0.00,,,0.00,Rainwise IP-100,2013-11-16 16:34:00,
2013-11-16 08:39:00,27.2,28.0,25.13,NNW,337,0.0,3.0,98,0.00,,,0.00,Rainwise IP-100,2013-11-16 16:39:00,
2013-11-16 08:44:00,27.3,28.0,25.13,NNW,337,0.0,1.0,98,0.00,,,0.00,Rainwise IP-100,2013-11-16 16:44:00,
2013-11-16 08:49:00,27.6,28.0,25.13,NNE,22,0.0,5.0,98,0.00,,,0.00,Rainwise IP-100,2013-11-16 16:49:00,
2013-11-16 08:54:00,27.8,28.0,25.13,NNW,337,4.9,4.9,98,0.00,,,0.00,Rainwise IP-100,2013-11-16 16:54:00,
2013-11-16 08:59:00,28.0,28.0,25.14,NNE,22,2.1,4.0,97,0.00,,,0.00,Rainwise IP-100,2013-11-16 16:59:00,
2013-11-16 09:04:00,28.0,28.0,25.14,ENE,67,0.0,4.0,97,0.00,,,0.00,Rainwise IP-100,2013-11-16 17:04:00,
2013-11-16 09:09:00,28.0,28.0,25.14,North,360,0.0,4.0,97,0.00,,,0.00,Rainwise IP-100,2013-11-16 17:09:00,
2013-11-16 09:15:00,28.1,28.0,25.14,NNW,337,1.6,4.0,97,0.00,,,0.00,Rainwise IP-100,2013-11-16 17:15:00,
2013-11-16 09:20:00,28.2,28.0,25.15,NNW,337,1.2,4.0,97,0.00,,,0.00,Rainwise IP-100,2013-11-16 17:20:00,
2013-11-16 09:25:00,28.3,28.0,25.14,NNW,337,1.2,2.0,97,0.00,,,0.00,Rainwise IP-100,2013-11-16 17:25:00,
2013-11-16 09:30:00,28.5,29.0,25.15,ENE,67,0.0,2.0,97,0.00,,,0.00,Rainwise IP-100,2013-11-16 17:30:00,
2013-11-16 09:35:00,28.6,28.0,25.15,ENE,67,0.0,1.0,96,0.00,,,0.00,Rainwise IP-100,2013-11-16 17:35:00,
2013-11-16 09:40:00,28.7,28.0,25.15,ENE,67,0.0,0.0,96,0.00,,,0.00,Rainwise IP-100,2013-11-16 17:40:00,
2013-11-16 09:45:00,29.0,28.0,25.15,ENE,67,0.0,0.0,95,0.00,,,0.00,Rainwise IP-100,2013-11-16 17:45:00,
2013-11-16 09:50:00,29.2,28.0,25.16,ENE,67,0.0,1.0,95,0.00,,,0.00,Rainwise IP-100,2013-11-16 17:50:00,
2013-11-16 09:55:00,29.3,28.0,25.16,ENE,67,0.0,1.0,94,0.00,,,0.00,Rainwise IP-100,2013-11-16 17:55:00,
2013-11-16 10:00:00,29.5,29.0,25.16,ENE,67,0.0,1.0,93,0.00,,,0.00,Rainwise IP-100,2013-11-16 18:00:00,
2013-11-16 10:05:00,29.6,29.0,25.16,ENE,67,0.0,0.0,93,0.00,,,0.00,Rainwise IP-100,2013-11-16 18:05:00,
2013-11-16 10:10:00,29.8,29.0,25.16,ENE,67,0.0,1.0,92,0.00,,,0.00,Rainwise IP-100,2013-11-16 18:10:00,
2013-11-16 10:15:00,29.8,29.0,25.16,ENE,67,0.0,1.0,92,0.00,,,0.00,Rainwise IP-100,2013-11-16 18:15:00,
2013-11-16 10:20:00,29.8,29.0,25.16,ENE,67,0.0,0.0,92,0.00,,,0.00,Rainwise IP-100,2013-11-16 18:20:00,
2013-11-16 10:25:00,29.8,29.0,25.17,ENE,67,0.0,0.0,92,0.00,,,0.00,Rainwise IP-100,2013-11-16 18:25:00,
2013-11-16 10:30:00,29.8,28.0,25.17,ENE,67,0.0,1.0,91,0.00,,,0.00,Rainwise IP-100,2013-11-16 18:30:00,
2013-11-16 10:35:00,29.7,28.0,25.17,ENE,67,0.0,2.0,91,0.00,,,0.00,Rainwise IP-100,2013-11-16 18:35:00,
2013-11-16 10:40:00,29.6,29.0,25.17,ENE,67,0.0,1.0,92,0.00,,,0.00,Rainwise IP-100,2013-11-16 18:40:00,
2013-11-16 10:45:00,29.5,29.0,25.18,ENE,67,0.0,2.0,92,0.00,,,0.00,Rainwise IP-100,2013-11-16 18:45:00,
2013-11-16 10:50:00,29.7,29.0,25.18,NNW,337,2.6,4.0,92,0.00,,,0.00,Rainwise IP-100,2013-11-16 18:50:00,
2013-11-16 10:55:00,29.9,29.0,25.18,NNW,337,3.0,5.0,92,0.00,,,0.00,Rainwise IP-100,2013-11-16 18:55:00,
2013-11-16 11:00:00,30.0,29.0,25.18,NNW,337,2.3,3.0,92,0.00,,,0.00,Rainwise IP-100,2013-11-16 19:00:00,
2013-11-16 11:05:00,30.2,28.0,25.18,NNW,337,2.6,4.0,91,0.00,,,0.00,Rainwise IP-100,2013-11-16 19:05:00,
2013-11-16 11:10:00,30.4,28.0,25.18,NNW,337,0.0,4.0,90,0.00,,,0.00,Rainwise IP-100,2013-11-16 19:10:00,
2013-11-16 11:15:00,30.5,28.0,25.18,NNW,337,0.0,0.0,90,0.00,,,0.00,Rainwise IP-100,2013-11-16 19:15:00,
2013-11-16 11:20:00,30.7,28.0,25.17,North,360,3.3,4.0,90,0.00,,,0.00,Rainwise IP-100,2013-11-16 19:20:00,
2013-11-16 11:25:00,30.8,28.0,25.17,NNW,337,3.3,4.0,90,0.00,,,0.00,Rainwise IP-100,2013-11-16 19:25:00,
2013-11-16 11:30:00,30.9,28.0,25.17,NNW,337,0.0,4.0,88,0.00,,,0.00,Rainwise IP-100,2013-11-16 19:30:00,
2013-11-16 11:35:00,31.0,28.0,25.17,NNW,337,0.0,3.0,88,0.00,,,0.00,Rainwise IP-100,2013-11-16 19:35:00,
2013-11-16 11:40:00,31.0,28.0,25.17,NNE,22,2.3,5.0,89,0.00,,,0.00,Rainwise IP-100,2013-11-16 19:40:00,
2013-11-16 11:45:00,31.0,28.0,25.17,NNW,337,5.1,5.1,88,0.00,,,0.00,Rainwise IP-100,2013-11-16 19:45:00,
2013-11-16 11:50:00,31.0,28.0,25.17,NNW,337,2.8,6.0,88,0.00,,,0.00,Rainwise IP-100,2013-11-16 19:50:00,
2013-11-16 11:55:00,30.8,28.0,25.18,North,360,2.1,8.0,88,0.00,,,0.00,Rainwise IP-100,2013-11-16 19:55:00,
2013-11-16 12:00:00,30.7,28.0,25.18,North,360,2.3,6.0,89,0.00,,,0.00,Rainwise IP-100,2013-11-16 20:00:00,
2013-11-16 12:05:00,30.6,28.0,25.18,NNW,337,2.3,7.0,89,0.00,,,0.00,Rainwise IP-100,2013-11-16 20:05:00,
2013-11-16 12:10:00,30.4,28.0,25.18,North,360,1.9,5.0,89,0.00,,,0.00,Rainwise IP-100,2013-11-16 20:10:00,
2013-11-16 12:15:00,30.1,28.0,25.19,North,360,3.7,5.0,90,0.06,,,0.01,Rainwise IP-100,2013-11-16 20:15:00,
2013-11-16 12:20:00,29.9,28.0,25.18,NNW,337,5.4,11.0,91,0.06,,,0.01,Rainwise IP-100,2013-11-16 20:20:00,
2013-11-16 12:25:00,29.8,28.0,25.18,North,360,1.9,7.0,90,0.00,,,0.01,Rainwise IP-100,2013-11-16 20:25:00,
2013-11-16 12:30:00,29.7,28.0,25.18,North,360,2.1,6.0,90,0.00,,,0.01,Rainwise IP-100,2013-11-16 20:30:00,
2013-11-16 12:35:00,29.7,28.0,25.18,NNW,337,0.0,4.0,90,0.00,,,0.01,Rainwise IP-100,2013-11-16 20:35:00,
2013-11-16 12:40:00,29.9,28.0,25.18,NNW,337,0.0,1.0,90,0.00,,,0.01,Rainwise IP-100,2013-11-16 20:40:00,
2013-11-16 12:45:00,30.2,28.0,25.18,NNW,337,2.1,2.1,90,0.00,,,0.01,Rainwise IP-100,2013-11-16 20:45:00,
2013-11-16 12:50:00,30.4,28.0,25.18,NNE,22,2.8,3.0,89,0.00,,,0.02,Rainwise IP-100,2013-11-16 20:50:00,
2013-11-16 12:55:00,30.5,28.0,25.18,NNE,22,2.3,6.0,88,0.06,,,0.02,Rainwise IP-100,2013-11-16 20:55:00,
2013-11-16 13:00:00,30.4,28.0,25.18,East,90,0.0,5.0,88,0.00,,,0.02,Rainwise IP-100,2013-11-16 21:00:00,
2013-11-16 13:05:00,30.3,28.0,25.19,NNE,22,2.3,5.0,88,0.00,,,0.02,Rainwise IP-100,2013-11-16 21:05:00,
2013-11-16 13:10:00,30.2,28.0,25.19,East,90,0.0,5.0,88,0.00,,,0.02,Rainwise IP-100,2013-11-16 21:10:00,
2013-11-16 13:15:00,30.1,28.0,25.19,NNW,337,2.1,4.0,89,0.00,,,0.02,Rainwise IP-100,2013-11-16 21:15:00,
2013-11-16 13:20:00,30.0,28.0,25.19,North,360,1.4,6.0,89,0.00,,,0.02,Rainwise IP-100,2013-11-16 21:20:00,
2013-11-16 13:25:00,29.8,28.0,25.19,NNW,337,1.2,3.0,90,0.00,,,0.02,Rainwise IP-100,2013-11-16 21:25:00,
2013-11-16 13:30:00,29.6,28.0,25.18,NNW,337,0.0,6.0,91,0.00,,,0.02,Rainwise IP-100,2013-11-16 21:30:00,
2013-11-16 13:35:00,29.6,28.0,25.18,NNW,337,1.9,5.0,91,0.00,,,0.02,Rainwise IP-100,2013-11-16 21:35:00,
2013-11-16 13:40:00,29.4,26.0,25.18,NW,315,7.5,7.5,90,0.00,,,0.02,Rainwise IP-100,2013-11-16 21:40:00,
2013-11-16 13:45:00,29.6,28.0,25.18,ESE,112,0.0,8.0,87,0.00,,,0.02,Rainwise IP-100,2013-11-16 21:45:00,
2013-11-16 13:50:00,30.0,26.0,25.18,WNW,292,0.0,4.0,84,0.00,,,0.02,Rainwise IP-100,2013-11-16 21:50:00,
2013-11-16 13:55:00,30.2,26.0,25.18,ESE,112,1.4,5.0,83,0.00,,,0.02,Rainwise IP-100,2013-11-16 21:55:00,
2013-11-16 14:00:00,30.4,26.0,25.19,NNW,337,1.6,8.0,83,0.00,,,0.02,Rainwise IP-100,2013-11-16 22:00:00,
2013-11-16 14:05:00,30.5,26.0,25.19,North,360,4.2,4.2,84,0.00,,,0.02,Rainwise IP-100,2013-11-16 22:05:00,
2013-11-16 14:10:00,30.6,26.0,25.19,NNW,337,1.4,7.0,84,0.00,,,0.02,Rainwise IP-100,2013-11-16 22:10:00,
2013-11-16 14:15:00,30.4,26.0,25.20,North,360,3.0,9.0,84,0.00,,,0.02,Rainwise IP-100,2013-11-16 22:15:00,
2013-11-16 14:20:00,30.2,26.0,25.19,North,360,1.2,12.0,85,0.06,,,0.03,Rainwise IP-100,2013-11-16 22:20:00,
2013-11-16 14:25:00,29.9,28.0,25.19,NNW,337,8.6,11.0,86,0.06,,,0.03,Rainwise IP-100,2013-11-16 22:25:00,
2013-11-16 14:30:00,29.7,28.0,25.19,North,360,3.3,9.0,86,0.00,,,0.03,Rainwise IP-100,2013-11-16 22:30:00,
2013-11-16 14:35:00,29.7,26.0,25.19,WSW,247,1.2,11.0,84,0.00,,,0.03,Rainwise IP-100,2013-11-16 22:35:00,
2013-11-16 14:40:00,29.8,26.0,25.19,NE,45,2.3,9.0,83,0.00,,,0.03,Rainwise IP-100,2013-11-16 22:40:00,
2013-11-16 14:45:00,29.8,26.0,25.18,NE,45,0.0,6.0,83,0.00,,,0.03,Rainwise IP-100,2013-11-16 22:45:00,
2013-11-16 14:50:00,30.0,26.0,25.19,NNW,337,0.0,6.0,82,0.00,,,0.03,Rainwise IP-100,2013-11-16 22:50:00,
2013-11-16 14:55:00,30.1,26.0,25.19,WSW,247,4.0,6.0,82,0.00,,,0.03,Rainwise IP-100,2013-11-16 22:55:00,
2013-11-16 15:00:00,30.0,26.0,25.19,SSE,157,0.0,6.0,83,0.00,,,0.03,Rainwise IP-100,2013-11-16 23:00:00,
2013-11-16 15:05:00,30.0,26.0,25.20,WNW,292,0.0,6.0,84,0.00,,,0.03,Rainwise IP-100,2013-11-16 23:05:00,
2013-11-16 15:10:00,30.0,26.0,25.20,NW,315,4.7,8.0,84,0.00,,,0.03,Rainwise IP-100,2013-11-16 23:10:00,
2013-11-16 15:15:00,30.0,26.0,25.20,WNW,292,0.0,7.0,83,0.00,,,0.03,Rainwise IP-100,2013-11-16 23:15:00,
2013-11-16 15:20:00,30.0,26.0,25.20,ESE,112,2.8,9.0,83,0.00,,,0.03,Rainwise IP-100,2013-11-16 23:20:00,
2013-11-16 15:25:00,30.0,26.0,25.20,NNE,22,1.6,10.0,82,0.00,,,0.03,Rainwise IP-100,2013-11-16 23:25:00,
2013-11-16 15:30:00,29.9,26.0,25.20,NNW,337,4.0,7.0,83,0.00,,,0.03,Rainwise IP-100,2013-11-16 23:30:00,
2013-11-16 15:35:00,29.8,26.0,25.20,NNW,337,3.7,5.0,83,0.00,,,0.03,Rainwise IP-100,2013-11-16 23:35:00,
2013-11-16 15:40:00,29.8,26.0,25.20,NNW,337,3.5,4.0,83,0.00,,,0.03,Rainwise IP-100,2013-11-16 23:40:00,
2013-11-16 15:45:00,29.8,26.0,25.20,NNE,22,0.0,7.0,83,0.00,,,0.03,Rainwise IP-100,2013-11-16 23:45:00,
2013-11-16 15:50:00,29.8,26.0,25.21,NW,315,7.7,11.0,82,0.00,,,0.03,Rainwise IP-100,2013-11-16 23:50:00,
2013-11-16 15:55:00,29.8,26.0,25.21,NNE,22,1.6,9.0,81,0.00,,,0.03,Rainwise IP-100,2013-11-16 23:55:00,
2013-11-16 16:00:00,29.6,26.0,25.22,ESE,112,0.0,10.0,82,0.00,,,0.03,Rainwise IP-100,2013-11-17 00:00:00,
2013-11-16 16:05:00,29.7,26.0,25.22,NW,315,10.7,10.7,81,0.00,,,0.03,Rainwise IP-100,2013-11-17 00:05:00,
2013-11-16 16:10:00,29.6,24.0,25.22,SE,135,6.8,11.0,79,0.00,,,0.03,Rainwise IP-100,2013-11-17 00:10:00,
2013-11-16 16:15:00,29.3,23.0,25.22,North,360,8.4,11.0,77,0.00,,,0.03,Rainwise IP-100,2013-11-17 00:15:00,
2013-11-16 16:20:00,28.9,23.0,25.22,NNW,337,7.2,12.0,74,0.00,,,0.03,Rainwise IP-100,2013-11-17 00:20:00,
2013-11-16 16:25:00,28.6,23.0,25.22,North,360,1.6,11.0,73,0.00,,,0.03,Rainwise IP-100,2013-11-17 00:25:00,
2013-11-16 16:30:00,28.4,21.0,25.22,NNE,22,1.6,12.0,73,0.00,,,0.03,Rainwise IP-100,2013-11-17 00:30:00,
2013-11-16 16:35:00,28.2,21.0,25.22,North,360,1.9,11.0,76,0.00,,,0.03,Rainwise IP-100,2013-11-17 00:35:00,
2013-11-16 16:40:00,28.1,23.0,25.22,North,360,3.0,19.0,78,0.00,,,0.03,Rainwise IP-100,2013-11-17 00:40:00,
2013-11-16 16:45:00,28.1,23.0,25.22,NNE,22,10.5,24.0,81,0.00,,,0.03,Rainwise IP-100,2013-11-17 00:45:00,
2013-11-16 16:50:00,28.1,23.0,25.22,North,360,7.9,18.0,83,0.00,,,0.03,Rainwise IP-100,2013-11-17 00:50:00,
2013-11-16 16:55:00,28.1,24.0,25.22,NNW,337,8.6,14.0,85,0.00,,,0.03,Rainwise IP-100,2013-11-17 00:55:00,
2013-11-16 17:00:00,28.2,24.0,25.22,East,90,2.6,14.0,85,0.00,,,0.03,Rainwise IP-100,2013-11-17 01:00:00,
2013-11-16 17:05:00,28.4,24.0,25.22,NE,45,5.6,13.0,85,0.00,,,0.03,Rainwise IP-100,2013-11-17 01:05:00,
2013-11-16 17:10:00,28.5,26.0,25.22,NNW,337,8.2,16.0,85,0.00,,,0.03,Rainwise IP-100,2013-11-17 01:10:00,
2013-11-16 17:15:00,28.4,24.0,25.22,NE,45,2.3,11.0,86,0.00,,,0.03,Rainwise IP-100,2013-11-17 01:15:00,
2013-11-16 17:20:00,28.3,24.0,25.22,WNW,292,7.5,11.0,87,0.00,,,0.03,Rainwise IP-100,2013-11-17 01:20:00,
2013-11-16 17:25:00,28.1,24.0,25.22,North,360,7.9,14.0,89,0.00,,,0.03,Rainwise IP-100,2013-11-17 01:25:00,
2013-11-16 17:30:00,27.6,26.0,25.22,NW,315,7.0,13.0,92,0.00,,,0.03,Rainwise IP-100,2013-11-17 01:30:00,
2013-11-16 17:35:00,27.3,26.0,25.22,NNW,337,12.6,15.0,94,0.00,,,0.03,Rainwise IP-100,2013-11-17 01:35:00,
2013-11-16 17:40:00,27.1,26.0,25.22,NNW,337,11.9,18.0,96,0.00,,,0.03,Rainwise IP-100,2013-11-17 01:40:00,
2013-11-16 17:45:00,27.0,28.0,25.22,NNW,337,6.3,14.0,97,0.00,,,0.03,Rainwise IP-100,2013-11-17 01:45:00,
2013-11-16 17:50:00,27.0,28.0,25.22,NNE,22,2.3,12.0,97,0.00,,,0.03,Rainwise IP-100,2013-11-17 01:50:00,
2013-11-16 17:55:00,27.1,28.0,25.22,NNW,337,2.8,14.0,98,0.00,,,0.03,Rainwise IP-100,2013-11-17 01:55:00,
2013-11-16 18:00:00,27.3,28.0,25.22,NNW,337,10.7,10.7,97,0.00,,,0.03,Rainwise IP-100,2013-11-17 02:00:00,
2013-11-16 18:05:00,27.4,28.0,25.22,NNW,337,4.0,13.0,97,0.00,,,0.03,Rainwise IP-100,2013-11-17 02:05:00,
2013-11-16 18:10:00,27.6,26.0,25.22,NW,315,4.4,14.0,96,0.00,,,0.03,Rainwise IP-100,2013-11-17 02:10:00,
2013-11-16 18:15:00,28.1,26.0,25.22,NNE,22,5.8,12.0,94,0.00,,,0.03,Rainwise IP-100,2013-11-17 02:15:00,
2013-11-16 18:20:00,28.3,26.0,25.23,NNE,22,6.3,13.0,93,0.00,,,0.03,Rainwise IP-100,2013-11-17 02:20:00,
2013-11-16 18:25:00,28.2,26.0,25.22,ENE,67,1.9,11.0,94,0.00,,,0.03,Rainwise IP-100,2013-11-17 02:25:00,
2013-11-16 18:30:00,28.2,26.0,25.23,NNE,22,0.0,13.0,93,0.00,,,0.03,Rainwise IP-100,2013-11-17 02:30:00,
2013-11-16 18:35:00,28.4,26.0,25.23,NNW,337,6.1,18.0,92,0.00,,,0.03,Rainwise IP-100,2013-11-17 02:35:00,
2013-11-16 18:40:00,28.4,26.0,25.23,NNE,22,5.8,9.0,93,0.00,,,0.03,Rainwise IP-100,2013-11-17 02:40:00,
2013-11-16 18:45:00,28.4,26.0,25.22,NNE,22,6.3,13.0,92,0.00,,,0.03,Rainwise IP-100,2013-11-17 02:45:00,
2013-11-16 18:50:00,28.4,26.0,25.23,NNW,337,3.0,15.0,93,0.00,,,0.03,Rainwise IP-100,2013-11-17 02:50:00,
2013-11-16 18:55:00,28.2,26.0,25.23,NNW,337,5.1,18.0,94,0.00,,,0.03,Rainwise IP-100,2013-11-17 02:55:00,
2013-11-16 19:00:00,28.0,26.0,25.24,NNE,22,2.6,11.0,95,0.00,,,0.03,Rainwise IP-100,2013-11-17 03:00:00,
2013-11-16 19:05:00,27.9,26.0,25.24,NNW,337,7.7,14.0,95,0.00,,,0.03,Rainwise IP-100,2013-11-17 03:05:00,
2013-11-16 19:10:00,27.8,26.0,25.24,NNE,22,9.6,11.0,96,0.00,,,0.03,Rainwise IP-100,2013-11-17 03:10:00,
2013-11-16 19:15:00,27.7,26.0,25.24,North,360,4.4,11.0,96,0.00,,,0.03,Rainwise IP-100,2013-11-17 03:15:00,
2013-11-16 19:20:00,27.6,28.0,25.25,NNW,337,4.0,10.0,97,0.00,,,0.03,Rainwise IP-100,2013-11-17 03:20:00,
2013-11-16 19:25:00,27.5,28.0,25.25,NNW,337,4.0,9.0,97,0.00,,,0.03,Rainwise IP-100,2013-11-17 03:25:00,
2013-11-16 19:30:00,27.4,28.0,25.24,NNE,22,9.3,10.0,98,0.00,,,0.03,Rainwise IP-100,2013-11-17 03:30:00,
2013-11-16 19:35:00,27.4,28.0,25.24,NNE,22,1.2,11.0,98,0.00,,,0.03,Rainwise IP-100,2013-11-17 03:35:00,
2013-11-16 19:40:00,27.4,28.0,25.24,North,360,2.8,9.0,98,0.00,,,0.03,Rainwise IP-100,2013-11-17 03:40:00,
2013-11-16 19:45:00,27.4,28.0,25.25,NE,45,1.2,10.0,98,0.00,,,0.03,Rainwise IP-100,2013-11-17 03:45:00,
2013-11-16 19:50:00,27.5,28.0,25.24,NNE,22,3.3,10.0,97,0.00,,,0.03,Rainwise IP-100,2013-11-17 03:50:00,
2013-11-16 19:55:00,27.7,28.0,25.25,North,360,4.7,10.0,97,0.00,,,0.03,Rainwise IP-100,2013-11-17 03:55:00,
2013-11-16 20:00:00,27.6,28.0,25.25,NNW,337,2.3,13.0,97,0.00,,,0.03,Rainwise IP-100,2013-11-17 04:00:00,
2013-11-16 20:05:00,27.5,28.0,25.25,North,360,2.1,13.0,98,0.00,,,0.03,Rainwise IP-100,2013-11-17 04:05:00,
2013-11-16 20:10:00,27.4,28.0,25.25,North,360,3.7,9.0,98,0.00,,,0.03,Rainwise IP-100,2013-11-17 04:10:00,
2013-11-16 20:15:00,27.4,28.0,25.25,NNW,337,8.9,11.0,98,0.00,,,0.03,Rainwise IP-100,2013-11-17 04:15:00,
2013-11-16 20:20:00,27.4,28.0,25.25,SSE,157,1.9,14.0,98,0.00,,,0.03,Rainwise IP-100,2013-11-17 04:20:00,
2013-11-16 20:25:00,27.4,28.0,25.26,ENE,67,0.0,16.0,98,0.00,,,0.03,Rainwise IP-100,2013-11-17 04:25:00,
2013-11-16 20:30:00,27.5,28.0,25.26,NNE,22,4.7,14.0,97,0.00,,,0.03,Rainwise IP-100,2013-11-17 04:30:00,
2013-11-16 20:35:00,27.8,26.0,25.27,NNW,337,3.3,15.0,93,0.00,,,0.03,Rainwise IP-100,2013-11-17 04:35:00,
2013-11-16 20:40:00,28.0,26.0,25.27,NNW,337,8.6,14.0,91,0.00,,,0.03,Rainwise IP-100,2013-11-17 04:40:00,
2013-11-16 20:45:00,28.0,26.0,25.27,NNW,337,5.8,10.0,91,0.00,,,0.03,Rainwise IP-100,2013-11-17 04:45:00,
2013-11-16 20:50:00,27.9,26.0,25.27,North,360,2.8,15.0,92,0.00,,,0.03,Rainwise IP-100,2013-11-17 04:50:00,
2013-11-16 20:55:00,27.8,26.0,25.28,NNW,337,2.6,12.0,93,0.00,,,0.03,Rainwise IP-100,2013-11-17 04:55:00,
2013-11-16 21:00:00,27.8,26.0,25.28,NNE,22,2.1,12.0,93,0.00,,,0.03,Rainwise IP-100,2013-11-17 05:00:00,
2013-11-16 21:01:00,27.8,26.0,25.28,NNE,22,5.4,12.0,93,0.00,,,0.03,Rainwise IP-100,2013-11-17 05:01:00,
2013-11-16 21:06:00,27.8,26.0,25.28,North,360,14.7,16.0,93,0.00,,,0.03,Rainwise IP-100,2013-11-17 05:06:00,
2013-11-16 21:11:00,27.8,26.0,25.28,SSE,157,1.6,14.0,91,0.00,,,0.03,Rainwise IP-100,2013-11-17 05:11:00,
2013-11-16 21:16:00,27.9,26.0,25.29,NW,315,4.4,15.0,90,0.00,,,0.03,Rainwise IP-100,2013-11-17 05:16:00,
2013-11-16 21:21:00,27.8,26.0,25.28,NNW,337,2.3,14.0,90,0.00,,,0.03,Rainwise IP-100,2013-11-17 05:21:00,
2013-11-16 21:26:00,27.9,24.0,25.29,NE,45,3.5,17.0,88,0.00,,,0.03,Rainwise IP-100,2013-11-17 05:26:00,
2013-11-16 21:31:00,28.0,24.0,25.29,NE,45,1.9,14.0,86,0.00,,,0.03,Rainwise IP-100,2013-11-17 05:31:00,
2013-11-16 21:36:00,28.1,24.0,25.30,NNE,22,3.5,13.0,85,0.00,,,0.03,Rainwise IP-100,2013-11-17 05:36:00,
2013-11-16 21:41:00,28.2,23.0,25.30,NNW,337,7.0,12.0,83,0.00,,,0.03,Rainwise IP-100,2013-11-17 05:41:00,
2013-11-16 21:46:00,28.2,23.0,25.31,North,360,7.2,17.0,82,0.00,,,0.03,Rainwise IP-100,2013-11-17 05:46:00,
2013-11-16 21:51:00,28.2,23.0,25.29,WNW,292,3.7,17.0,82,0.00,,,0.03,Rainwise IP-100,2013-11-17 05:51:00,
2013-11-16 21:56:00,28.2,23.0,25.29,NNE,22,2.6,16.0,81,0.00,,,0.03,Rainwise IP-100,2013-11-17 05:56:00,
2013-11-16 22:01:00,28.3,23.0,25.30,NNE,22,6.5,11.0,80,0.00,,,0.03,Rainwise IP-100,2013-11-17 06:01:00,
2013-11-16 22:06:00,28.2,23.0,25.30,NNW,337,13.1,16.0,81,0.00,,,0.03,Rainwise IP-100,2013-11-17 06:06:00,
2013-11-16 22:11:00,28.1,23.0,25.30,ENE,67,3.5,14.0,81,0.00,,,0.03,Rainwise IP-100,2013-11-17 06:11:00,
2013-11-16 22:16:00,28.2,23.0,25.30,NNW,337,9.1,11.0,80,0.00,,,0.03,Rainwise IP-100,2013-11-17 06:16:00,
2013-11-16 22:21:00,28.1,23.0,25.30,NNW,337,7.0,12.0,80,0.00,,,0.03,Rainwise IP-100,2013-11-17 06:21:00,
2013-11-16 22:26:00,28.1,23.0,25.30,North,360,12.6,12.6,79,0.00,,,0.03,Rainwise IP-100,2013-11-17 06:26:00,
2013-11-16 22:31:00,28.1,23.0,25.31,West,270,2.1,13.0,79,0.00,,,0.03,Rainwise IP-100,2013-11-17 06:31:00,
2013-11-16 22:36:00,28.0,23.0,25.31,NNE,22,0.0,10.0,79,0.00,,,0.03,Rainwise IP-100,2013-11-17 06:36:00,
2013-11-16 22:41:00,28.1,23.0,25.31,ENE,67,0.0,16.0,79,0.00,,,0.03,Rainwise IP-100,2013-11-17 06:41:00,
2013-11-16 22:46:00,28.2,23.0,25.30,East,90,1.4,13.0,78,0.00,,,0.03,Rainwise IP-100,2013-11-17 06:46:00,
2013-11-16 22:51:00,28.2,23.0,25.29,North,360,7.0,12.0,78,0.00,,,0.03,Rainwise IP-100,2013-11-17 06:51:00,
2013-11-16 22:56:00,28.2,23.0,25.30,North,360,2.1,19.0,78,0.00,,,0.03,Rainwise IP-100,2013-11-17 06:56:00,
2013-11-16 23:01:00,28.5,23.0,25.30,East,90,0.0,22.0,77,0.00,,,0.03,Rainwise IP-100,2013-11-17 07:01:00,
2013-11-16 23:06:00,28.6,23.0,25.30,North,360,9.6,11.0,77,0.00,,,0.03,Rainwise IP-100,2013-11-17 07:06:00,
2013-11-16 23:11:00,28.2,23.0,25.30,NNE,22,3.0,11.0,79,0.00,,,0.03,Rainwise IP-100,2013-11-17 07:11:00,
2013-11-16 23:16:00,28.0,23.0,25.31,NNE,22,4.4,13.0,81,0.00,,,0.03,Rainwise IP-100,2013-11-17 07:16:00,
2013-11-16 23:21:00,27.9,23.0,25.32,NNE,22,5.4,11.0,82,0.00,,,0.03,Rainwise IP-100,2013-11-17 07:21:00,
2013-11-16 23:26:00,27.7,23.0,25.32,WNW,292,2.6,8.0,83,0.00,,,0.03,Rainwise IP-100,2013-11-17 07:26:00,
2013-11-16 23:31:00,27.5,24.0,25.31,NNE,22,2.1,14.0,85,0.00,,,0.03,Rainwise IP-100,2013-11-17 07:31:00,
2013-11-16 23:36:00,27.4,24.0,25.32,NNW,337,2.6,10.0,86,0.00,,,0.03,Rainwise IP-100,2013-11-17 07:36:00,
2013-11-16 23:41:00,27.4,24.0,25.32,NNW,337,9.1,9.1,86,0.00,,,0.03,Rainwise IP-100,2013-11-17 07:41:00,
2013-11-16 23:46:00,27.4,24.0,25.32,SE,135,3.3,10.0,87,0.00,,,0.03,Rainwise IP-100,2013-11-17 07:46:00,
2013-11-16 23:51:00,27.3,24.0,25.32,NNW,337,10.0,11.0,88,0.00,,,0.03,Rainwise IP-100,2013-11-17 07:51:00,
2013-11-16 23:56:00,27.2,24.0,25.32,East,90,0.0,12.0,89,0.00,,,0.03,Rainwise IP-100,2013-11-17 07:56:00,